GW6974 Weather Reports


time (UTC)temp
C
wind
direction
speed
KPH
gust
KPH
rain 1hr
cm
rain 24hr
cm
rain mn
cm
humidity
%
barometer
mb
20260906132005 26 141 1.6 3.2 0.00 0.00 0.00 84 1014.1
20260906131521 26 160 0.0 3.2 0.00 0.00 0.00 86 1014.1
20260906131012 26 172 0.0 3.2 0.00 0.00 0.00 86 1014.1
20260906130510 26 137 0.0 3.2 0.00 0.00 0.00 85 1014.2
20260906130029 26 1 0.0 3.2 0.00 0.00 0.00 86 1014.1
20260906125513 25 96 0.0 3.2 0.00 0.00 0.00 87 1014.1
20260906125014 25 96 0.0 3.2 0.00 0.00 0.00 88 1014.1
20260906124530 25 100 0.0 0.0 0.00 0.00 0.00 89 1014.2
20260906124005 25 99 0.0 3.2 0.00 0.00 0.00 89 1014.1
20260906123504 24 99 0.0 3.2 0.00 0.00 0.00 89 1014.1
20260906123008 24 99 1.6 3.2 0.00 0.00 0.00 90 1014.0
20260906122505 24 84 0.0 3.2 0.00 0.00 0.00 90 1014.0
20260906122005 23 233 0.0 3.2 0.00 0.00 0.00 92 1014.0
20260906121527 23 233 0.0 3.2 0.00 0.00 0.00 93 1014.1
20260906121007 23 236 0.0 3.2 0.00 0.00 0.00 93 1014.1
20260906120512 23 236 0.0 3.2 0.00 0.00 0.00 93 1014.1
20260906120024 23 236 0.0 3.2 0.00 0.00 0.00 93 1014.1
20260906115512 22 236 0.0 3.2 0.00 0.00 0.00 93 1014.0
20260906115014 22 236 1.6 3.2 0.00 0.00 0.00 93 1014.0
20260906114531 22 317 0.0 3.2 0.00 0.00 0.00 93 1013.8
20260906114014 22 316 0.0 3.2 0.00 0.00 0.00 93 1013.9
20260906113514 22 316 0.0 3.2 0.00 0.00 0.00 93 1013.8
20260906113024 22 316 0.0 3.2 0.00 0.00 0.00 93 1013.7
20260906112503 22 316 0.0 3.2 0.00 0.00 0.00 93 1013.8
20260906112006 22 316 0.0 3.2 0.00 0.00 0.00 93 1013.7
20260906111515 22 316 0.0 3.2 0.00 0.00 0.00 93 1013.6
20260906111006 22 317 0.0 1.6 0.00 0.00 0.00 93 1013.7
20260906110508 22 316 0.0 3.2 0.00 0.00 0.00 93 1013.7
20260906110025 22 316 0.0 3.2 0.00 0.00 0.00 93 1013.9
20260906105511 22 316 0.0 3.2 0.00 0.00 0.00 93 1013.8
20260906105012 22 316 0.0 3.2 0.00 0.00 0.00 93 1013.7
20260906104530 22 317 0.0 3.2 0.00 0.00 0.00 93 1013.8
20260906104014 22 316 0.0 3.2 0.00 0.00 0.00 93 1013.8
20260906103514 22 316 0.0 0.0 0.00 0.00 0.00 93 1013.9
20260906103034 22 316 0.0 0.0 0.00 0.00 0.00 93 1014.0
20260906102518 22 316 0.0 3.2 0.00 0.00 0.00 93 1013.9
20260906102004 22 316 0.0 3.2 0.00 0.00 0.00 93 1013.9
20260906101512 22 330 0.0 3.2 0.00 0.00 0.00 93 1013.9
20260906101005 22 330 0.0 3.2 0.00 0.00 0.00 93 1013.9
20260906100510 22 330 0.0 3.2 0.00 0.00 0.00 93 1013.8
20260906100022 22 330 0.0 3.2 0.00 0.00 0.00 93 1013.6
20260906095509 22 330 0.0 3.2 0.00 0.00 0.00 93 1013.4
20260906095013 22 330 0.0 3.2 0.00 0.00 0.00 93 1013.3
20260906094527 22 330 0.0 3.2 0.00 0.00 0.00 93 1013.3
20260906094014 22 330 0.0 0.0 0.00 0.00 0.00 92 1013.2
20260906093518 22 330 0.0 3.2 0.00 0.00 0.00 92 1013.2
20260906093032 22 330 0.0 3.2 0.00 0.00 0.00 92 1013.2
20260906092518 22 330 1.6 3.2 0.00 0.00 0.00 92 1013.3
20260906092018 22 268 0.0 3.2 0.00 0.00 0.00 92 1013.3
20260906091535 22 268 0.0 3.2 0.00 0.00 0.00 92 1013.2
20260906091007 22 268 0.0 3.2 0.00 0.00 0.00 93 1013.0
20260906090509 22 268 0.0 3.2 0.00 0.00 0.00 92 1013.1
20260906090019 22 159 0.0 0.0 0.00 0.00 0.00 92 1013.0
20260906085512 22 159 0.0 3.2 0.00 0.00 0.00 92 1013.0
20260906085012 22 159 0.0 3.2 0.00 0.00 0.00 92 1013.0
20260906084531 23 159 0.0 0.0 0.00 0.00 0.00 92 1013.0
20260906084013 23 159 0.0 3.2 0.00 0.00 0.00 92 1013.0
20260906083516 23 159 0.0 3.2 0.00 0.00 0.00 92 1013.0
20260906083028 23 159 0.0 3.2 0.00 0.00 0.00 92 1013.1
20260906082516 23 159 0.0 3.2 0.00 0.00 0.00 92 1013.2
20260906082014 23 159 0.0 3.2 0.00 0.00 0.00 92 1013.0
20260906081542 23 159 0.0 3.2 0.00 0.00 0.00 92 1012.9
20260906081015 23 158 0.0 3.2 0.00 0.00 0.00 92 1013.0
20260906080516 23 157 1.6 3.2 0.00 0.00 0.00 92 1013.0
20260906080014 23 305 0.0 3.2 0.00 0.00 0.00 92 1013.0
20260906075510 23 305 0.0 3.2 0.00 0.00 0.00 91 1012.9
20260906075009 23 305 1.6 3.2 0.00 0.00 0.00 92 1013.0
20260906074522 23 304 0.0 3.2 0.00 0.00 0.00 92 1012.9
20260906074010 23 304 0.0 3.2 0.00 0.00 0.00 92 1012.8
20260906073514 23 304 0.0 3.2 0.00 0.00 0.00 91 1012.8
20260906073030 23 340 0.0 1.6 0.00 0.00 0.00 91 1012.8
20260906072514 23 340 0.0 1.6 0.00 0.00 0.00 91 1012.9
20260906072016 23 309 0.0 1.6 0.00 0.00 0.00 91 1012.9
20260906071536 23 296 0.0 3.2 0.00 0.00 0.00 91 1013.0
20260906071022 23 1 0.0 3.2 0.00 0.00 0.00 90 1013.0
20260906070516 23 1 0.0 3.2 0.00 0.00 0.00 91 1012.9
20260906070034 23 1 0.0 3.2 0.00 0.00 0.00 91 1013.1
20260906065515 23 1 0.0 3.2 0.00 0.00 0.00 91 1013.1
20260906065009 23 1 0.0 3.2 0.00 0.00 0.00 91 1013.2
20260906064520 23 1 0.0 3.2 0.00 0.00 0.00 90 1013.4
20260906064009 23 1 0.0 3.2 0.00 0.00 0.00 90 1013.3
20260906063511 23 1 0.0 3.2 0.00 0.00 0.00 90 1013.3
20260906063005 23 1 0.0 3.2 0.00 0.00 0.00 89 1013.5
20260906062502 23 1 0.0 3.2 0.00 0.00 0.00 89 1013.5
20260906062003 23 1 0.0 3.2 0.00 0.00 0.00 89 1013.5
20260906061509 23 1 0.0 3.2 0.00 0.00 0.00 88 1013.6
20260906061003 23 1 0.0 3.2 0.00 0.00 0.00 88 1013.6
20260906060507 23 307 0.0 3.2 0.00 0.00 0.00 87 1013.6
20260906060024 24 307 0.0 3.2 0.00 0.00 0.00 87 1013.5
20260906055507 24 307 0.0 3.2 0.00 0.00 0.00 87 1013.5
20260906055007 24 307 0.0 3.2 0.00 0.00 0.00 87 1013.6
20260906054516 24 307 0.0 3.2 0.00 0.00 0.00 87 1013.6
20260906054008 24 307 0.0 3.2 0.00 0.00 0.00 87 1013.6
20260906053511 24 307 1.6 3.2 0.00 0.00 0.00 86 1013.6
20260906053032 24 4 0.0 3.2 0.00 0.00 0.00 86 1013.6
20260906052514 24 4 0.0 3.2 0.00 0.00 0.00 86 1013.7
20260906052004 24 4 0.0 3.2 0.00 0.00 0.00 86 1013.8
20260906051506 24 51 0.0 3.2 0.00 0.00 0.00 87 1013.8
20260906051004 24 51 0.0 3.2 0.00 0.00 0.00 87 1013.8
20260906050503 24 25 0.0 3.2 0.00 0.00 0.00 87 1013.9
20260906050028 24 24 0.0 3.2 0.00 0.00 0.00 87 1013.7
20260906045503 24 31 1.6 3.2 0.00 0.00 0.00 87 1013.8
20260906045007 24 64 0.0 3.2 0.00 0.00 0.00 87 1013.6
20260906044528 24 65 1.6 3.2 0.00 0.00 0.00 86 1013.6
20260906044009 24 159 0.0 3.2 0.00 0.00 0.00 87 1013.7
20260906043508 24 162 0.0 3.2 0.00 0.00 0.00 87 1013.7
20260906043023 24 162 1.6 3.2 0.00 0.00 0.00 86 1013.8
20260906042512 25 191 1.6 3.2 0.00 0.00 0.00 85 1014.0
20260906042013 25 277 0.0 3.2 0.00 0.00 0.00 84 1013.9
20260906041534 25 292 0.0 3.2 0.00 0.00 0.00 85 1014.1
20260906041004 24 296 0.0 3.2 0.00 0.00 0.00 86 1014.0
20260906040503 25 298 1.6 3.2 0.00 0.00 0.00 86 1014.1
20260906040011 25 68 0.0 3.2 0.00 0.00 0.00 85 1014.1
20260906035505 25 108 0.0 3.2 0.00 0.00 0.00 85 1014.0
20260906035004 25 108 0.0 3.2 0.00 0.00 0.00 85 1014.1
20260906034517 25 108 0.0 3.2 0.00 0.00 0.00 85 1014.2
20260906034007 25 108 0.0 3.2 0.00 0.00 0.00 84 1014.4
20260906033509 25 357 0.0 3.2 0.00 0.00 0.00 84 1014.2
20260906033036 25 357 0.0 3.2 0.00 0.00 0.00 83 1014.2
20260906032511 26 357 0.0 3.2 0.00 0.00 0.00 85 1014.2
20260906032010 26 303 0.0 3.2 0.00 0.00 0.00 84 1014.2
20260906031531 26 37 0.0 3.2 0.00 0.00 0.00 84 1014.3
20260906031017 26 37 0.0 3.2 0.00 0.00 0.00 84 1014.2
20260906030516 26 37 1.6 3.2 0.00 0.00 0.00 83 1014.4
20260906030010 26 52 0.0 3.2 0.00 0.00 0.00 83 1014.2
20260906025504 26 1 0.0 3.2 0.00 0.00 0.00 83 1014.2
20260906025004 26 295 1.6 3.2 0.00 0.00 0.00 84 1014.1
20260906024514 26 358 3.2 3.2 0.00 0.00 0.00 84 1013.9
20260906024009 26 39 1.6 3.2 0.00 0.00 0.00 83 1013.7
20260906023508 26 342 0.0 3.2 0.00 0.00 0.00 83 1013.6
20260906023017 26 330 0.0 3.2 0.00 0.00 0.00 84 1013.5
20260906022509 26 183 1.6 3.2 0.00 0.00 0.00 84 1013.6
20260906022014 26 150 1.6 3.2 0.00 0.00 0.00 84 1013.9
20260906021528 26 203 0.0 3.2 0.00 0.00 0.00 83 1013.8
20260906021014 26 203 0.0 4.8 0.00 0.00 0.00 82 1013.8
20260906020513 26 202 1.6 4.8 0.00 0.00 0.00 82 1014.0
20260906020030 26 233 0.0 8.0 0.00 0.00 0.00 81 1014.1
20260906015516 26 263 3.2 17.7 0.00 0.00 0.00 82 1014.3
20260906015004 26 37 4.8 17.7 0.00 0.00 0.00 85 1014.4
20260906014511 25 353 3.2 4.8 0.00 0.00 0.00 86 1014.2
20260906014005 25 44 1.6 3.2 0.00 0.00 0.00 86 1013.6
20260906013506 26 129 0.0 1.6 0.00 0.00 0.00 85 1013.4
20260906013020 26 129 0.0 3.2 0.00 0.00 0.00 85 1013.3
20260906012507 26 157 0.0 3.2 0.00 0.00 0.00 85 1013.2
20260906012012 26 157 0.0 3.2 0.00 0.00 0.00 84 1013.3
20260906011533 26 21 0.0 3.2 0.00 0.00 0.00 83 1013.2
20260906011011 26 20 0.0 3.2 0.00 0.00 0.00 83 1013.3
20260906010516 26 20 0.0 3.2 0.00 0.00 0.00 83 1013.3
20260906010032 26 20 0.0 3.2 0.00 0.00 0.00 82 1013.1
20260906005515 26 20 0.0 3.2 0.00 0.00 0.00 82 1012.9
20260906005015 26 20 0.0 3.2 0.00 0.00 0.00 82 1012.7
20260906004531 26 20 0.0 3.2 0.00 0.00 0.00 81 1012.4
20260906004004 26 21 0.0 3.2 0.00 0.00 0.00 81 1012.3
20260906003506 27 21 0.0 3.2 0.00 0.00 0.00 81 1012.2
20260906003013 27 20 0.0 1.6 0.00 0.00 0.00 80 1012.2
20260906002510 27 1 0.0 0.0 0.00 0.00 0.00 79 1012.4
20260906002008 27 1 0.0 3.2 0.00 0.00 0.00 79 1012.2
20260906001523 27 1 0.0 3.2 0.00 0.00 0.00 78 1012.2
20260906001011 27 1 0.0 3.2 0.00 0.00 0.00 77 1012.4
20260906000509 27 16 0.0 3.2 0.00 0.00 0.00 78 1012.4
20260906000026 27 118 0.0 3.2 0.00 0.00 0.00 78 1012.5
20260905235515 27 60 0.0 3.2 0.00 0.00 0.00 77 1012.6
20260905235015 28 60 0.0 3.2 0.00 0.00 0.00 77 1012.7
20260905234531 28 155 0.0 3.2 0.00 0.00 0.00 76 1012.7
20260905234016 28 155 0.0 3.2 0.00 0.00 0.00 75 1012.6
20260905233518 28 155 0.0 3.2 0.00 0.00 0.00 73 1012.5
20260905233009 28 148 1.6 3.2 0.00 0.00 0.00 73 1012.6
20260905232503 28 186 0.0 3.2 0.00 0.00 0.00 72 1012.5
20260905232008 29 180 0.0 6.4 0.00 0.00 0.00 71 1012.7
20260905231516 29 81 3.2 8.0 0.00 0.00 0.00 70 1012.8
20260905231010 30 222 1.6 8.0 0.00 0.00 0.00 71 1012.8
20260905230511 30 177 1.6 6.4 0.00 0.00 0.00 71 1012.7
20260905230030 30 158 3.2 6.4 0.00 0.00 0.00 72 1012.7
20260905225515 30 191 1.6 6.4 0.00 0.00 0.00 71 1012.7
20260905225018 30 155 1.6 6.4 0.00 0.00 0.00 71 1012.6
20260905224540 30 150 3.2 6.4 0.00 0.00 0.00 69 1012.6
20260905224019 30 162 3.2 9.7 0.00 0.00 0.00 68 1012.7
20260905223515 30 204 1.6 9.7 0.00 0.00 0.00 67 1012.7
20260905223035 31 174 3.2 9.7 0.00 0.00 0.00 67 1012.7
20260905222518 31 173 3.2 9.7 0.00 0.00 0.00 67 1012.7
20260905222004 31 181 1.6 11.3 0.00 0.00 0.00 68 1012.6
20260905221517 31 253 3.2 11.3 0.00 0.00 0.00 67 1012.6
20260905221009 31 195 1.6 6.4 0.00 0.00 0.00 69 1012.5
20260905220510 31 170 3.2 11.3 0.00 0.00 0.00 67 1012.4
20260905220024 31 188 6.4 11.3 0.00 0.00 0.00 67 1012.4
20260905215513 31 214 0.0 11.3 0.00 0.00 0.00 68 1012.5
20260905215012 31 174 3.2 12.9 0.00 0.00 0.00 66 1012.4
20260905214527 31 163 3.2 12.9 0.00 0.00 0.00 66 1012.4
20260905214014 31 160 4.8 11.3 0.00 0.00 0.00 66 1012.3
20260905213516 31 172 3.2 9.7 0.00 0.00 0.00 67 1012.4
20260905213033 31 179 1.6 4.8 0.00 0.00 0.00 65 1012.5
20260905212515 31 195 1.6 9.7 0.00 0.00 0.00 66 1012.5
20260905212017 31 148 3.2 9.7 0.00 0.00 0.00 66 1012.7
20260905211532 31 260 1.6 8.0 0.00 0.00 0.00 67 1012.7
20260905211007 31 184 4.8 11.3 0.00 0.00 0.00 67 1012.7
20260905210511 31 139 4.8 14.5 0.00 0.00 0.00 67 1012.8
20260905210019 31 148 6.4 14.5 0.00 0.00 0.00 66 1012.7
20260905205511 31 138 3.2 6.4 0.00 0.00 0.00 66 1012.7
20260905205012 31 183 3.2 8.0 0.00 0.00 0.00 67 1012.7
20260905204527 31 210 3.2 8.0 0.00 0.00 0.00 67 1012.7
20260905204013 31 226 3.2 9.7 0.00 0.00 0.00 67 1012.8
20260905203514 31 169 4.8 11.3 0.00 0.00 0.00 68 1012.9
20260905203037 31 277 4.8 11.3 0.00 0.00 0.00 67 1013.0
20260905202516 31 122 1.6 17.7 0.00 0.00 0.00 69 1013.1
20260905202014 30 167 4.8 17.7 0.00 0.00 0.00 68 1013.1
20260905201512 31 174 4.8 9.7 0.00 0.00 0.00 68 1013.4
20260905201010 31 177 3.2 12.9 0.00 0.00 0.00 69 1013.5
20260905200507 31 158 8.0 14.5 0.00 0.00 0.00 67 1013.5
20260905200021 31 222 6.4 14.5 0.00 0.00 0.00 67 1013.6
20260905195508 31 211 4.8 12.9 0.00 0.00 0.00 67 1013.7
20260905195015 31 141 3.2 12.9 0.00 0.00 0.00 69 1013.7
20260905194527 31 99 3.2 11.3 0.00 0.00 0.00 67 1013.7
20260905194003 31 184 3.2 11.3 0.00 0.00 0.00 68 1013.7
20260905193505 31 208 4.8 12.9 0.00 0.00 0.00 68 1013.6
20260905193009 31 199 4.8 14.5 0.00 0.00 0.00 69 1013.8
20260905192503 31 164 4.8 14.5 0.00 0.00 0.00 69 1013.7
20260905192004 30 302 4.8 12.9 0.00 0.00 0.00 70 1013.8
20260905191508 31 227 4.8 16.1 0.00 0.00 0.00 71 1013.9
20260905191006 30 326 6.4 16.1 0.00 0.00 0.00 70 1013.9
20260905190508 30 202 3.2 14.5 0.00 0.00 0.00 71 1014.0
20260905190013 30 124 6.4 14.5 0.00 0.00 0.00 71 1014.1
20260905185509 30 169 9.7 14.5 0.00 0.00 0.00 71 1014.1
20260905185010 31 202 3.2 12.9 0.00 0.00 0.00 72 1014.1
20260905184531 30 174 4.8 14.5 0.00 0.00 0.00 72 1014.2
20260905184012 30 145 3.2 14.5 0.00 0.00 0.00 72 1014.4
20260905183513 30 162 6.4 12.9 0.00 0.00 0.00 72 1014.4
20260905183002 30 180 8.0 12.9 0.00 0.00 0.00 72 1014.5
20260905182504 30 184 3.2 12.9 0.00 0.00 0.00 73 1014.5
20260905182003 30 264 3.2 12.9 0.00 0.00 0.00 75 1015.0
20260905181508 29 141 1.6 14.5 0.00 0.00 0.00 75 1015.1
20260905181004 28 153 4.8 12.9 0.00 0.00 0.00 76 1015.0
20260905180504 28 113 4.8 12.9 0.00 0.00 0.00 76 1015.3
20260905180014 29 187 3.2 14.5 0.00 0.00 0.00 75 1015.3
20260905175508 28 160 6.4 14.5 0.00 0.00 0.00 75 1015.4
20260905175008 28 134 3.2 14.5 0.00 0.00 0.00 76 1015.4
20260905174524 28 181 6.4 14.5 0.00 0.00 0.00 76 1015.3
20260905174015 29 206 3.2 17.7 0.00 0.00 0.00 75 1015.3
20260905173512 29 253 6.4 17.7 0.00 0.00 0.00 75 1015.0
20260905173031 29 294 3.2 16.1 0.00 0.00 0.00 74 1015.1
20260905172513 29 167 8.0 16.1 0.00 0.00 0.00 75 1015.3
20260905172004 29 154 6.4 14.5 0.00 0.00 0.00 74 1015.2
20260905171513 29 182 8.0 19.3 0.00 0.00 0.00 74 1015.3
20260905171003 29 190 9.7 24.1 0.00 0.00 0.00 75 1015.3
20260905170505 29 162 9.7 22.5 0.00 0.00 0.00 73 1015.4
20260905170012 30 134 3.2 12.9 0.00 0.00 0.00 74 1015.6
20260905165507 30 142 6.4 14.5 0.00 0.00 0.00 72 1015.6
20260905165012 31 145 9.7 14.5 0.00 0.00 0.00 67 1015.5
20260905164516 32 54 0.0 4.8 0.00 0.00 0.00 56 1015.4
20260905164009 32 129 1.6 8.0 0.00 0.00 0.00 56 1015.4
20260905163510 33 23 1.6 8.0 0.00 0.00 0.00 55 1015.5
20260905163035 33 85 1.6 6.4 0.00 0.00 0.00 58 1015.5
20260905162516 33 222 1.6 6.4 0.00 0.00 0.00 55 1015.6
20260905162014 33 60 3.2 8.0 0.00 0.00 0.00 54 1015.6
20260905161529 33 319 4.8 8.0 0.00 0.00 0.00 54 1015.8
20260905161004 33 325 1.6 8.0 0.00 0.00 0.00 55 1015.8
20260905160505 33 359 1.6 4.8 0.00 0.00 0.00 56 1015.6
20260905160013 33 67 1.6 8.0 0.00 0.00 0.00 57 1015.5
20260905155506 32 105 1.6 8.0 0.00 0.00 0.00 56 1015.5
20260905155006 32 263 3.2 8.0 0.00 0.00 0.00 58 1015.5
20260905154516 33 93 1.6 8.0 0.00 0.00 0.00 59 1015.4
20260905154008 32 61 1.6 8.0 0.00 0.00 0.00 60 1015.4
20260905153508 32 14 3.2 9.7 0.00 0.00 0.00 62 1015.4
20260905153023 32 157 1.6 9.7 0.00 0.00 0.00 60 1015.4
20260905152511 32 53 1.6 8.0 0.00 0.00 0.00 63 1015.4
20260905152013 31 27 3.2 8.0 0.00 0.00 0.00 62 1015.3
20260905151533 32 60 4.8 6.4 0.00 0.00 0.00 62 1015.4
20260905151013 32 240 0.0 4.8 0.00 0.00 0.00 64 1015.4
20260905150514 31 354 1.6 4.8 0.00 0.00 0.00 69 1015.3
20260905150011 31 20 3.2 4.8 0.00 0.00 0.00 68 1015.3
20260905145506 31 86 3.2 4.8 0.00 0.00 0.00 67 1015.4
20260905145007 31 312 0.0 3.2 0.00 0.00 0.00 69 1015.4
20260905144513 31 188 0.0 4.8 0.00 0.00 0.00 69 1015.4
20260905144007 30 132 0.0 6.4 0.00 0.00 0.00 71 1015.4
20260905143508 30 40 4.8 6.4 0.00 0.00 0.00 70 1015.5
20260905143025 30 37 0.0 3.2 0.00 0.00 0.00 74 1015.4
20260905142511 30 359 0.0 3.2 0.00 0.00 0.00 73 1015.5
20260905142011 30 68 1.6 3.2 0.00 0.00 0.00 74 1015.5
20260905141526 29 75 1.6 4.8 0.00 0.00 0.00 75 1015.5
20260905141013 29 98 1.6 4.8 0.00 0.00 0.00 75 1015.5
20260905140514 28 349 1.6 4.8 0.00 0.00 0.00 75 1015.6
20260905140038 28 76 1.6 4.8 0.00 0.00 0.00 77 1015.6
20260905135517 28 104 1.6 4.8 0.00 0.00 0.00 77 1015.6
20260905135006 27 21 1.6 4.8 0.00 0.00 0.00 79 1015.6
20260905134511 27 334 3.2 4.8 0.00 0.00 0.00 79 1015.6
20260905134011 27 96 1.6 3.2 0.00 0.00 0.00 81 1015.6
20260905133508 27 82 0.0 3.2 0.00 0.00 0.00 82 1015.6
20260905133018 27 42 0.0 3.2 0.00 0.00 0.00 82 1015.6
20260905132518 26 56 0.0 3.2 0.00 0.00 0.00 82 1015.7